EW7966 Weather Reports


time (UTC)temp
F
wind
direction
speed
knots
gust
knots
rain 1hr
in
rain 24hr
in
rain mn
in
humidity
%
barometer
mb
20200531082005 58 232 3.5 6.1 0.00 0.00 0.00 66 1030.5
20200531081500 58 217 4.3 7.0 0.00 0.00 0.00 66 1030.5
20200531081005 58 227 4.3 6.1 0.00 0.00 0.00 66 1030.6
20200531080500 58 240 4.3 7.0 0.00 0.00 0.00 66 1030.5
20200531080006 58 245 5.2 7.0 0.00 0.00 0.00 67 1030.6
20200531075500 58 241 5.2 7.0 0.00 0.00 0.00 67 1030.7
20200531075007 58 234 5.2 7.8 0.00 0.00 0.00 67 1030.7
20200531074500 58 236 5.2 7.8 0.00 0.00 0.00 68 1030.8
20200531074004 58 233 4.3 7.0 0.00 0.00 0.00 69 1030.8
20200531073500 57 244 5.2 7.0 0.00 0.00 0.00 70 1030.8
20200531073005 57 238 2.6 6.1 0.00 0.00 0.00 70 1030.8
20200531073001 57 238 2.6 6.1 0.00 0.00 0.00 70 1017.0
20200531072501 57 233 4.3 7.8 0.00 0.00 0.00 71 1030.9
20200531072007 57 231 5.2 8.7 0.00 0.00 0.00 71 1030.9
20200531071459 57 234 6.1 8.7 0.00 0.00 0.00 71 1031.0
20200531071003 57 242 5.2 7.8 0.00 0.00 0.00 71 1031.1
20200531070504 57 249 6.1 7.8 0.00 0.00 0.00 71 1031.1
20200531070012 57 239 4.3 7.0 0.00 0.00 0.00 72 1031.1
20200531070008 57 226 4.3 7.0 0.00 0.00 0.00 72 1017.3
20200531065501 57 240 4.3 6.1 0.00 0.00 0.00 71 1031.1
20200531065004 58 246 3.5 6.1 0.00 0.00 0.00 70 1031.2
20200531064501 58 226 3.5 6.1 0.00 0.00 0.00 68 1031.3
20200531064011 59 237 1.7 5.2 0.00 0.00 0.00 67 1031.4
20200531063502 59 206 2.6 5.2 0.00 0.00 0.00 67 1031.4
20200531063009 58 205 1.7 5.2 0.00 0.00 0.00 68 1031.4
20200531063003 58 203 1.7 5.2 0.00 0.00 0.00 68 1017.6
20200531062501 58 226 3.5 5.2 0.00 0.00 0.00 69 1031.5
20200531062004 58 237 3.5 5.2 0.00 0.00 0.00 68 1031.5
20200531061501 59 233 2.6 5.2 0.00 0.00 0.00 66 1031.5
20200531061008 60 238 2.6 5.2 0.00 0.00 0.00 65 1031.6
20200531060500 60 244 2.6 6.1 0.00 0.00 0.00 63 1031.7
20200531060010 61 178 2.6 6.1 0.00 0.00 0.00 62 1017.9
20200531055500 61 225 2.6 7.8 0.00 0.00 0.00 60 1031.8
20200531055004 62 215 3.5 8.7 0.00 0.00 0.00 58 1031.8
20200531054501 62 207 5.2 10.4 0.00 0.00 0.00 58 1031.9
20200531054004 62 187 5.2 10.4 0.00 0.00 0.00 59 1032.0
20200531053500 62 203 5.2 11.3 0.00 0.00 0.00 60 1032.1
20200531053009 62 210 6.1 12.2 0.00 0.00 0.00 61 1018.6
20200531053006 62 210 6.1 12.2 0.00 0.00 0.00 61 1032.3
20200531052500 61 212 6.1 12.2 0.00 0.00 0.00 62 1032.2
20200531052004 62 190 2.6 11.3 0.00 0.00 0.00 61 1032.4
20200531051500 62 190 5.2 11.3 0.00 0.00 0.00 60 1032.4
20200531051004 63 219 3.5 7.0 0.00 0.00 0.00 57 1032.5
20200531050500 63 173 3.5 7.0 0.00 0.00 0.00 56 1032.5
20200531050021 62 199 3.5 15.6 0.00 0.00 0.00 56 1018.8
20200531050013 62 144 3.5 15.6 0.00 0.00 0.00 56 1032.6
20200531045501 60 211 3.5 9.6 0.00 0.00 0.00 63 1032.5
20200531045003 60 81 0.0 0.0 0.00 0.00 0.00 65 1032.2
20200531044500 61 81 0.0 0.0 0.00 0.00 0.00 62 1032.3
20200531044009 60 27 0.0 0.0 0.00 0.00 0.00 62 1032.4
20200531043500 60 27 0.0 0.0 0.00 0.00 0.00 65 1032.5
20200531043019 60 27 0.0 0.0 0.00 0.00 0.00 66 1018.7
20200531043008 60 26 0.0 0.0 0.00 0.00 0.00 66 1032.4
20200531042500 60 224 0.0 0.0 0.00 0.00 0.00 65 1032.4
20200531042004 60 224 0.0 0.0 0.00 0.00 0.00 65 1032.4
20200531041500 61 224 0.0 0.9 0.00 0.00 0.00 64 1032.4
20200531041003 61 225 0.0 0.9 0.00 0.00 0.00 61 1032.4
20200531040500 61 155 0.0 0.0 0.00 0.00 0.00 60 1032.3
20200531040007 61 279 0.0 0.0 0.00 0.00 0.00 60 1018.6
20200531035501 62 279 0.0 0.0 0.00 0.00 0.00 61 1032.4
20200531035003 62 281 0.0 1.7 0.00 0.00 0.00 59 1032.4
20200531034500 62 243 0.0 4.3 0.00 0.00 0.00 58 1032.4
20200531034004 62 188 0.9 6.1 0.00 0.00 0.00 58 1032.5
20200531033500 62 157 4.3 6.1 0.00 0.00 0.00 59 1032.4
20200531033004 62 164 2.6 5.2 0.00 0.00 0.00 60 1032.3
20200531033002 62 164 1.7 5.2 0.00 0.00 0.00 60 1018.4
20200531032506 63 123 0.0 0.0 0.00 0.00 0.00 58 1032.1
20200531032007 63 144 0.0 0.0 0.00 0.00 0.00 55 1032.0
20200531031500 63 159 0.0 0.0 0.00 0.00 0.00 56 1031.8
20200531031019 63 150 0.0 0.0 0.00 0.00 0.00 55 1031.7
20200531030500 63 161 0.0 0.0 0.00 0.00 0.00 56 1031.7
20200531030007 63 205 0.0 0.0 0.00 0.00 0.00 56 1031.7
20200531030004 63 205 0.0 0.0 0.00 0.00 0.00 56 1017.7
20200531025509 63 234 0.0 0.0 0.00 0.00 0.00 56 1031.6
20200531025008 63 233 0.0 0.0 0.00 0.00 0.00 57 1031.6
20200531024500 63 226 0.0 0.0 0.00 0.00 0.00 59 1031.4
20200531024003 63 249 0.0 0.0 0.00 0.00 0.00 59 1031.4
20200531023500 64 219 0.0 0.0 0.00 0.00 0.00 59 1031.5
20200531023008 64 16 0.0 0.0 0.00 0.00 0.00 59 1031.5
20200531023004 64 16 0.0 0.0 0.00 0.00 0.00 59 1017.5
20200531022500 64 16 0.0 0.0 0.00 0.00 0.00 58 1031.5
20200531022011 64 16 0.0 0.0 0.00 0.00 0.00 58 1031.4
20200531021505 64 276 0.0 0.0 0.00 0.00 0.00 61 1031.4
20200531021004 64 268 0.0 0.0 0.00 0.00 0.00 62 1031.4
20200531020502 65 260 0.0 0.0 0.00 0.00 0.00 60 1031.3
20200531020010 65 257 0.0 0.0 0.00 0.00 0.00 60 1031.3
20200531020006 65 257 0.0 0.0 0.00 0.00 0.00 60 1017.2
20200531015511 65 223 0.0 0.0 0.00 0.03 0.00 58 1031.3
20200531015019 65 237 0.0 0.0 0.00 0.03 0.00 59 1031.3
20200531014500 65 237 0.0 0.0 0.00 0.03 0.00 59 1031.4
20200531014004 66 242 0.0 0.0 0.00 0.03 0.00 58 1031.5
20200531013502 66 206 0.0 4.3 0.00 0.03 0.00 58 1031.5
20200531013003 66 241 0.0 5.2 0.00 0.03 0.00 58 1031.5
20200531012500 66 247 3.5 5.2 0.00 0.03 0.00 59 1031.5
20200531012003 66 238 2.6 4.3 0.00 0.03 0.00 59 1031.6
20200531011501 66 214 0.0 3.5 0.00 0.03 0.00 59 1031.6
20200531011012 66 233 0.9 5.2 0.00 0.03 0.00 58 1031.6
20200531010501 66 184 1.7 5.2 0.00 0.03 0.00 58 1031.5
20200531010021 66 245 2.6 4.3 0.00 0.03 0.00 58 1017.2
20200531010006 66 245 2.6 4.3 0.00 0.03 0.00 58 1031.5
20200531005459 66 246 3.5 5.2 0.00 0.03 0.00 57 1031.5
20200531005003 67 229 1.7 4.3 0.00 0.03 0.00 55 1031.5
20200531004459 67 248 0.9 5.2 0.00 0.03 0.00 54 1031.5
20200531004006 67 232 1.7 6.1 0.00 0.03 0.00 55 1031.4
20200531003459 67 226 2.6 8.7 0.00 0.03 0.00 55 1031.4
20200531003003 67 230 6.1 9.6 0.00 0.03 0.00 54 1031.3
20200531002501 67 240 6.1 10.4 0.00 0.03 0.00 53 1031.2
20200531002002 67 178 2.6 6.1 0.00 0.03 0.00 53 1031.3
20200531001459 68 219 2.6 6.1 0.00 0.03 0.00 54 1031.2
20200531001006 68 230 1.7 6.1 0.00 0.03 0.00 54 1031.3
20200531000500 68 242 4.3 7.8 0.00 0.03 0.00 53 1031.3
20200531000010 68 242 5.2 10.4 0.00 0.03 0.00 52 1016.9
20200531000007 68 242 6.1 10.4 0.00 0.03 0.00 52 1031.4
20200530235500 68 242 7.0 10.4 0.00 0.03 0.00 51 1031.4
20200530235003 69 248 7.8 10.4 0.00 0.03 0.00 51 1031.3
20200530234500 69 240 4.3 6.1 0.00 0.03 0.00 51 1031.4
20200530234003 70 214 2.6 8.7 0.00 0.03 0.00 48 1031.4
20200530233500 72 250 5.2 8.7 0.00 0.03 0.00 47 1031.5
20200530233005 73 101 0.0 3.5 0.00 0.03 0.00 51 1031.4
20200530233002 73 101 0.0 3.5 0.00 0.03 0.00 51 1016.7
20200530232500 73 87 1.7 3.5 0.00 0.03 0.00 50 1031.4
20200530232003 73 74 2.6 5.2 0.00 0.03 0.00 47 1031.4
20200530231500 73 61 2.6 6.1 0.00 0.03 0.00 50 1031.4
20200530231004 73 53 3.5 6.1 0.00 0.03 0.00 47 1031.4
20200530230500 73 55 2.6 6.1 0.00 0.03 0.00 48 1031.3
20200530230015 73 53 3.5 5.2 0.00 0.03 0.00 46 1016.4
20200530230009 73 53 4.3 5.2 0.00 0.03 0.00 46 1031.2
20200530225500 74 46 2.6 4.3 0.00 0.05 0.00 47 1031.3
20200530225005 74 86 2.6 4.3 0.00 0.05 0.00 45 1031.3
20200530224500 74 72 3.5 4.3 0.00 0.05 0.00 45 1031.4
20200530224003 74 108 3.5 6.1 0.00 0.05 0.00 45 1031.3
20200530223500 74 68 3.5 7.0 0.00 0.05 0.00 45 1031.3
20200530223006 74 67 2.6 6.1 0.00 0.05 0.00 46 1016.6
20200530222500 74 65 4.3 6.1 0.00 0.05 0.00 46 1031.4
20200530222004 74 103 3.5 5.2 0.00 0.05 0.00 45 1031.4
20200530221500 74 103 3.5 7.0 0.00 0.05 0.00 44 1031.4
20200530221003 74 87 4.3 7.0 0.00 0.05 0.00 42 1031.3
20200530220500 74 107 4.3 7.0 0.00 0.05 0.00 44 1031.4
20200530220020 74 109 3.5 9.6 0.00 0.05 0.00 46 1016.6
20200530220006 74 109 3.5 9.6 0.00 0.05 0.00 46 1031.4
20200530215501 74 101 7.0 9.6 0.00 0.06 0.00 46 1031.4
20200530215004 74 65 4.3 8.7 0.00 0.06 0.00 46 1031.4
20200530214500 74 87 7.8 8.7 0.00 0.06 0.00 44 1031.5
20200530214005 74 90 5.2 9.6 0.00 0.06 0.00 44 1031.4
20200530213500 74 78 7.0 9.6 0.00 0.06 0.00 45 1031.4
20200530213006 74 85 6.1 9.6 0.00 0.06 0.00 44 1016.6
20200530213003 74 85 6.1 9.6 0.00 0.06 0.00 44 1031.3
20200530212500 75 67 7.0 13.0 0.00 0.06 0.00 43 1031.4
20200530212004 75 75 8.7 13.0 0.00 0.06 0.00 42 1031.3
20200530211501 74 71 9.6 12.2 0.00 0.06 0.00 42 1031.4
20200530211006 74 58 7.8 10.4 0.00 0.06 0.00 44 1031.4
20200530210500 74 98 7.0 12.2 0.00 0.06 0.00 45 1031.5
20200530210013 74 57 10.4 13.0 0.00 0.06 0.00 44 1016.8
20200530210007 74 57 10.4 13.0 0.00 0.06 0.00 44 1031.5
20200530205500 74 88 8.7 15.6 0.00 0.06 0.00 45 1031.5
20200530205004 75 58 10.4 13.9 0.00 0.06 0.00 45 1031.5
20200530204500 76 61 8.7 12.2 0.00 0.06 0.00 44 1031.4
20200530204003 75 82 8.7 12.2 0.00 0.06 0.00 42 1031.5
20200530203500 75 74 9.6 11.3 0.00 0.06 0.00 43 1031.5
20200530203012 74 63 8.7 11.3 0.00 0.06 0.00 41 1016.8
20200530203004 74 63 8.7 11.3 0.00 0.06 0.00 41 1031.6
20200530202500 74 99 7.0 12.2 0.00 0.06 0.00 43 1031.7
20200530202004 74 63 8.7 13.9 0.00 0.06 0.00 45 1031.7
20200530201500 74 85 11.3 13.9 0.00 0.06 0.00 43 1031.8
20200530201006 75 71 10.4 15.6 0.00 0.06 0.00 43 1031.8
20200530200500 75 46 10.4 17.4 0.00 0.06 0.00 44 1031.9
20200530200018 75 55 9.6 16.5 0.00 0.06 0.00 44 1017.2
20200530200009 75 55 10.4 16.5 0.00 0.06 0.00 44 1031.9
20200530195500 76 53 7.8 15.6 0.00 0.06 0.00 44 1032.0
20200530195006 75 80 9.6 15.6 0.00 0.06 0.00 43 1032.1
20200530194500 76 67 10.4 13.9 0.00 0.06 0.00 41 1032.1
20200530194003 75 90 8.7 13.9 0.00 0.06 0.00 40 1032.3
20200530193500 75 59 10.4 13.9 0.00 0.06 0.00 40 1032.3
20200530193008 75 71 7.0 13.9 0.00 0.06 0.00 43 1017.6
20200530193004 75 71 7.8 13.9 0.00 0.06 0.00 43 1032.4
20200530192500 75 90 9.6 13.0 0.00 0.06 0.00 42 1032.3
20200530192003 75 84 7.8 13.0 0.00 0.06 0.00 40 1032.3
20200530191500 76 86 8.7 15.6 0.00 0.06 0.00 41 1032.3
20200530191004 75 71 8.7 15.6 0.00 0.06 0.00 44 1032.3
20200530190500 75 69 7.0 13.0 0.00 0.06 0.00 44 1032.4
20200530190008 75 74 7.8 12.2 0.00 0.06 0.00 42 1032.4
20200530185500 74 78 8.7 13.9 0.00 0.06 0.00 42 1032.5
20200530185003 75 55 9.6 17.4 0.00 0.06 0.00 45 1032.5
20200530184500 74 55 5.2 15.6 0.00 0.06 0.00 49 1032.6
20200530184003 75 92 8.7 13.9 0.00 0.06 0.00 41 1032.7
20200530183500 74 68 10.4 13.9 0.00 0.06 0.00 41 1032.8
20200530183004 75 17 8.7 13.0 0.00 0.06 0.00 46 1032.8
20200530183002 75 17 8.7 13.0 0.00 0.06 0.00 46 1018.1
20200530182500 75 67 8.7 13.9 0.00 0.06 0.00 44 1032.9
20200530182003 75 58 8.7 15.6 0.00 0.06 0.00 45 1032.8
20200530181500 75 63 10.4 15.6 0.00 0.06 0.00 43 1032.9
20200530181003 75 61 7.8 13.0 0.00 0.06 0.00 47 1032.8
20200530180500 75 34 9.6 13.9 0.00 0.06 0.00 43 1032.8
20200530180024 75 35 8.7 15.6 0.00 0.06 0.00 44 1018.2
20200530180010 75 53 9.6 15.6 0.00 0.06 0.00 44 1032.9
20200530175500 75 55 11.3 15.6 0.00 0.06 0.00 43 1032.8
20200530175004 75 17 10.4 13.9 0.00 0.06 0.00 41 1032.7
20200530174502 75 24 11.3 13.9 0.00 0.06 0.00 42 1032.7
20200530174005 74 21 11.3 13.0 0.00 0.06 0.00 39 1032.8
20200530173500 75 22 8.7 13.0 0.00 0.06 0.00 42 1032.8
20200530173004 75 54 8.7 13.9 0.00 0.06 0.00 41 1032.8
20200530173002 75 54 7.8 13.9 0.00 0.06 0.00 41 1018.2
20200530172500 74 348 8.7 13.0 0.00 0.06 0.00 41 1032.7
20200530172003 75 326 7.8 11.3 0.00 0.06 0.00 41 1032.8
20200530171500 75 13 6.1 10.4 0.00 0.06 0.00 44 1032.8
20200530171007 75 355 7.0 12.2 0.00 0.06 0.00 44 1032.8
20200530170500 75 46 9.6 12.2 0.00 0.06 0.00 40 1032.8
20200530170008 74 47 8.7 11.3 0.00 0.06 0.00 36 1032.9
20200530165502 75 27 7.0 10.4 0.00 0.06 0.00 40 1032.9
20200530165004 74 57 6.1 10.4 0.00 0.06 0.00 39 1032.9
20200530164500 74 30 5.2 12.2 0.00 0.06 0.00 41 1032.9
20200530164003 74 46 9.6 13.0 0.00 0.06 0.00 39 1032.9
20200530163500 74 34 7.0 13.9 0.00 0.06 0.00 40 1032.9
20200530163004 74 43 5.2 13.9 0.00 0.06 0.00 43 1032.9
20200530162501 74 26 7.8 12.2 0.00 0.06 0.00 41 1033.0
20200530162005 74 28 9.6 12.2 0.00 0.06 0.00 40 1032.9
20200530161500 74 47 7.8 12.2 0.00 0.06 0.00 39 1033.0
20200530161004 74 70 7.8 10.4 0.00 0.06 0.00 38 1032.9
20200530160500 74 22 5.2 10.4 0.00 0.06 0.00 40 1032.9
20200530160010 74 67 7.8 10.4 0.00 0.06 0.00 37 1032.9
20200530160007 74 65 7.8 10.4 0.00 0.06 0.00 37 1018.3
20200530155500 74 351 7.8 9.6 0.00 0.06 0.00 39 1032.8
20200530155003 73 360 5.2 7.0 0.00 0.06 0.00 38 1032.9
20200530154500 73 26 5.2 6.1 0.00 0.06 0.00 38 1032.9
20200530154003 73 43 4.3 6.1 0.00 0.06 0.00 41 1032.9
20200530153500 72 30 1.7 6.1 0.00 0.06 0.00 42 1032.9
20200530153004 72 314 3.5 6.1 0.00 0.06 0.00 43 1032.9
20200530153002 72 314 2.6 6.1 0.00 0.06 0.00 43 1018.3
20200530152500 71 314 2.6 6.1 0.00 0.06 0.00 46 1033.0
20200530152003 70 284 4.3 7.0 0.00 0.06 0.00 50 1033.0
20200530151500 68 281 5.2 7.0 0.00 0.06 0.00 51 1033.0
20200530151002 68 238 4.3 6.1 0.00 0.06 0.00 52 1033.0
20200530150501 68 298 3.5 6.1 0.00 0.06 0.00 54 1032.9
20200530150011 67 283 4.3 7.8 0.00 0.06 0.00 56 1018.3
20200530150007 67 283 4.3 7.8 0.00 0.06 0.00 56 1032.9
20200530145500 67 284 5.2 7.8 0.00 0.06 0.00 56 1032.9
20200530145003 67 267 5.2 8.7 0.00 0.06 0.00 56 1033.0
20200530144500 66 273 5.2 8.7 0.00 0.06 0.00 56 1033.0
20200530144005 66 288 7.0 10.4 0.00 0.06 0.00 56 1033.0
20200530143500 66 260 6.1 10.4 0.00 0.06 0.00 56 1033.1
20200530143007 67 275 6.1 10.4 0.00 0.06 0.00 55 1018.4
20200530143004 67 275 6.1 10.4 0.00 0.06 0.00 55 1033.0
20200530142500 67 273 6.1 10.4 0.00 0.06 0.00 53 1032.9
20200530142022 67 274 6.1 10.4 0.00 0.06 0.00 56 1032.9
20200530141500 67 244 6.1 10.4 0.00 0.06 0.00 55 1033.0
20200530141004 67 269 6.1 10.4 0.00 0.06 0.00 57 1032.9
20200530140500 66 279 7.0 13.0 0.00 0.06 0.00 57 1032.8
20200530140007 65 308 8.7 13.0 0.00 0.06 0.00 57 1032.7
20200530135500 65 276 9.6 12.2 0.00 0.06 0.00 58 1032.7
20200530135004 65 274 8.7 13.0 0.00 0.06 0.00 61 1032.7
20200530134500 64 283 8.7 12.2 0.00 0.06 0.00 60 1032.6
20200530134004 64 269 7.8 11.3 0.00 0.06 0.00 60 1032.7
20200530133500 63 254 8.7 12.2 0.00 0.06 0.00 61 1032.7
20200530133005 63 283 7.8 11.3 0.00 0.06 0.00 63 1032.7
20200530133001 63 283 7.0 11.3 0.00 0.06 0.00 63 1018.2
20200530132500 62 271 8.7 11.3 0.00 0.06 0.00 63 1032.7
20200530132003 62 260 7.8 11.3 0.00 0.06 0.00 64 1032.7
20200530131500 61 280 7.8 12.2 0.00 0.06 0.00 65 1032.7
20200530131003 61 283 9.6 12.2 0.00 0.06 0.00 66 1032.6
20200530130500 60 275 8.7 12.2 0.00 0.06 0.00 66 1032.6
20200530130005 60 281 8.7 13.0 0.00 0.06 0.00 67 1032.7
20200530125459 59 281 10.4 13.0 0.00 0.06 0.00 66 1032.7
20200530125003 59 242 9.6 13.0 0.00 0.06 0.00 67 1032.6
20200530124459 59 271 8.7 12.2 0.00 0.06 0.00 66 1032.6
20200530124004 58 275 7.0 9.6 0.00 0.06 0.00 67 1032.6
20200530123459 57 302 5.2 8.7 0.00 0.06 0.00 67 1032.6
20200530123002 57 256 3.5 6.1 0.00 0.06 0.00 66 1032.6
20200530122459 58 260 1.7 8.7 0.00 0.06 0.00 64 1032.5
20200530122003 58 250 4.3 9.6 0.00 0.06 0.00 64 1032.5
20200530121459 58 281 7.0 9.6 0.00 0.06 0.00 63 1032.4
20200530121002 58 272 6.1 9.6 0.00 0.06 0.00 62 1032.4
20200530120500 58 265 6.1 8.7 0.00 0.06 0.00 61 1032.3
20200530120006 58 271 5.2 9.6 0.00 0.06 0.00 60 1018.2
20200530115500 58 275 6.1 7.8 0.00 0.06 0.00 59 1032.3
20200530115003 58 273 4.3 7.8 0.00 0.06 0.00 59 1032.3
20200530114500 59 272 2.6 6.1 0.00 0.06 0.00 58 1032.2
20200530114003 59 262 3.5 7.0 0.00 0.06 0.00 57 1032.2
20200530113500 59 275 4.3 7.0 0.00 0.06 0.00 57 1032.0
20200530113005 59 273 4.3 8.7 0.00 0.06 0.00 56 1032.0
20200530113001 59 273 4.3 8.7 0.00 0.06 0.00 56 1017.9
20200530112500 59 275 5.2 8.7 0.00 0.06 0.00 57 1032.0
20200530112004 59 263 4.3 6.1 0.00 0.06 0.00 58 1032.0
20200530111500 58 269 2.6 5.2 0.00 0.06 0.00 59 1032.0
20200530111003 59 264 2.6 5.2 0.00 0.06 0.00 59 1032.0
20200530110500 59 271 2.6 6.1 0.00 0.06 0.00 59 1031.9
20200530110007 58 267 4.3 6.1 0.00 0.06 0.00 61 1031.8
20200530110005 58 267 3.5 6.1 0.00 0.06 0.00 61 1017.6
20200530105500 55 269 4.3 7.0 0.00 0.06 0.00 68 1031.7
20200530105004 54 256 4.3 5.2 0.00 0.06 0.00 70 1031.7
20200530104502 53 233 4.3 5.2 0.00 0.06 0.00 73 1031.7
20200530104003 53 236 4.3 6.1 0.00 0.06 0.00 73 1031.7
20200530103500 53 238 5.2 6.1 0.00 0.06 0.00 72 1031.6
20200530103003 54 239 5.2 6.1 0.00 0.06 0.00 70 1031.7
20200530103001 54 239 4.3 6.1 0.00 0.06 0.00 70 1017.5
20200530102500 54 242 3.5 4.3 0.00 0.06 0.00 70 1031.6
20200530102003 55 230 3.5 4.3 0.00 0.06 0.00 67 1031.5
20200530101500 56 256 0.9 5.2 0.00 0.06 0.00 65 1031.5
20200530101003 56 192 3.5 5.2 0.00 0.06 0.00 64 1031.5
20200530100500 56 233 3.5 4.3 0.00 0.06 0.00 66 1031.4
20200530100008 56 236 3.5 4.3 0.00 0.06 0.00 66 1031.3
20200530100003 56 237 3.5 4.3 0.00 0.06 0.00 66 1017.2
20200530095459 56 248 1.7 4.3 0.00 0.06 0.00 66 1031.3
20200530095002 56 256 2.6 3.5 0.00 0.06 0.00 66 1031.3
20200530094459 56 241 1.7 1.7 0.00 0.06 0.00 67 1031.3
20200530094002 56 230 0.9 1.7 0.00 0.06 0.00 67 1031.4
20200530093458 56 239 0.9 3.5 0.00 0.06 0.00 66 1031.4
20200530093001 56 236 2.6 2.6 0.00 0.06 0.00 66 1031.3
20200530092459 56 227 1.7 2.6 0.00 0.06 0.00 67 1031.3
20200530092001 56 232 1.7 4.3 0.00 0.06 0.00 67 1031.3
20200530091459 56 230 3.5 4.3 0.00 0.06 0.00 67 1031.3
20200530091004 56 246 3.5 4.3 0.00 0.06 0.00 67 1031.3
20200530090459 56 250 2.6 4.3 0.00 0.06 0.00 68 1031.3
20200530090012 56 233 2.6 5.2 0.00 0.06 0.00 68 1017.2
20200530090006 56 233 3.5 5.2 0.00 0.06 0.00 68 1031.3
20200530085500 56 242 4.3 5.2 0.00 0.06 0.00 68 1031.3
20200530085002 56 244 3.5 4.3 0.00 0.06 0.00 68 1031.4
20200530084500 56 250 1.7 1.7 0.00 0.06 0.00 68 1031.4
20200530084003 55 238 0.0 1.7 0.00 0.06 0.00 69 1031.5
20200530083500 55 233 0.9 4.3 0.00 0.06 0.00 70 1031.5
20200530083003 55 232 3.5 4.3 0.00 0.06 0.00 69 1031.4
20200530083001 55 230 3.5 4.3 0.00 0.06 0.00 69 1017.3
20200530082500 56 221 1.7 4.3 0.00 0.06 0.00 68 1031.4